Fort Campbell, KY

2:50 AM CDT on May 28, 2018 (GMT -0500)
Campbell Army Air Field

Weather History for KHOP - August, 2013

Change the Weather History Date:

Friday, August 30, 2013

  Actual Average Record
Temperature  
Mean Temperature 83 °F -  
Max Temperature 92 °F 85 °F 95 °F (1997)
Min Temperature 74 °F 64 °F 62 °F (1998)
Cooling Degree Days 18    
Growing Degree Days 33 (Base 50)    
Moisture  
Dew Point 74 °F    
Average Humidity 77    
Maximum Humidity 100    
Minimum Humidity 51    
Precipitation  
Precipitation 0.00 in - - ()
Sea Level Pressure  
Sea Level Pressure 29.95 in    
Wind  
Wind Speed 5 mph (WSW)    
Max Wind Speed 12 mph    
Max Gust Speed 16 mph    
Visibility 10 miles    
Events Rain    
Averages and records for this station are not official NWS values.
T = Trace of Precipitation, MM = Missing Value Source: NWS Daily Summary

Daily Weather History Graph

Daily Weather History Graph

Search for Another Location

Airport or City:

Astronomy

Aug. 30, 2013 Rise Set
Actual Time 6:19 AM CDT 7:20 PM CDT
Civil Twilight 5:53 AM CDT 7:47 PM CDT
Nautical Twilight 5:21 AM CDT 8:18 PM CDT
Astronomical Twilight 4:48 AM CDT 8:51 PM CDT
Moon 1:02 AM CDT (8/30) 3:31 PM CDT (8/30)
Length of Visible Light 13h 53m
Length of Day
13h 00m
Waning Crescent, 29% of the Moon is Illuminated
Aug 30
Waning Crescent
Sep 5
New
Sep 12
First Quarter
Sep 19
Full
Sep 26
Last Quarter

Hourly Weather History & Observations

Time (CDT) Temp. Heat Index Dew Point Humidity Pressure Visibility Wind Dir Wind Speed Gust Speed Precip Events Conditions
12:58 AM 77.4 °F - 76.5 °F 97% 29.97 in 10.0 mi SW 2.3 mph - N/A   Clear
1:58 AM 75.0 °F - 75.0 °F 100% 29.96 in 10.0 mi SW 4.6 mph - N/A   Clear
2:58 AM 75.4 °F - 75.4 °F 100% 29.96 in 10.0 mi SW 4.6 mph - N/A   Clear
3:58 AM 74.3 °F - 74.3 °F 100% 29.96 in 10.0 mi WSW 3.5 mph - N/A   Clear
4:58 AM 74.5 °F - 74.5 °F 100% 29.97 in 10.0 mi SW 3.5 mph - N/A   Clear
5:58 AM 74.3 °F - 74.3 °F 100% 29.97 in 10.0 mi WSW 3.5 mph - N/A   Clear
6:58 AM 74.3 °F - 74.3 °F 100% 29.98 in 10.0 mi SW 4.6 mph - N/A   Clear
7:58 AM 78.3 °F - 76.6 °F 95% 29.99 in 10.0 mi West 4.6 mph - N/A   Clear
8:20 AM 80.6 °F 86.2 °F 75.2 °F 84% 30.00 in 10.0 mi West 4.6 mph - N/A Rain Light Rain
8:27 AM 82.4 °F 89.5 °F 75.2 °F 79% 30.00 in 10.0 mi West 4.6 mph - N/A   Clear
8:58 AM 83.5 °F 90.3 °F 74.1 °F 73% 29.99 in 10.0 mi West 5.8 mph - 0.00 in   Clear
9:58 AM 85.6 °F 92.6 °F 73.2 °F 66% 29.99 in 10.0 mi WNW 6.9 mph - N/A   Partly Cloudy
10:58 AM 88.3 °F 96.4 °F 73.4 °F 61% 29.99 in 10.0 mi Variable 5.8 mph - N/A   Clear
11:58 AM 90.3 °F 98.7 °F 73.4 °F 57% 29.98 in 10.0 mi West 6.9 mph - N/A   Partly Cloudy
12:58 PM 91.4 °F 100.1 °F 73.4 °F 55% 29.96 in 10.0 mi WSW 8.1 mph 16.1 mph N/A   Clear
1:58 PM 92.1 °F 100.5 °F 72.9 °F 53% 29.95 in 10.0 mi Variable 4.6 mph - N/A   Clear
2:58 PM 91.0 °F 98.2 °F 71.8 °F 53% 29.93 in 10.0 mi West 8.1 mph - N/A   Clear
3:58 PM 91.8 °F 98.6 °F 71.2 °F 51% 29.91 in 10.0 mi WSW 11.5 mph - N/A   Clear
4:58 PM 91.4 °F 98.9 °F 72.1 °F 53% 29.90 in 10.0 mi WSW 10.4 mph - N/A   Clear
5:58 PM 90.0 °F 97.4 °F 72.1 °F 56% 29.90 in 10.0 mi WSW 8.1 mph - N/A   Clear
6:58 PM 87.1 °F 94.1 °F 72.7 °F 62% 29.90 in 10.0 mi WSW 8.1 mph - N/A   Clear
7:58 PM 82.2 °F 88.0 °F 73.4 °F 75% 29.90 in 10.0 mi SW 4.6 mph - N/A   Clear
8:58 PM 81.1 °F 86.4 °F 73.8 °F 78% 29.90 in 10.0 mi SW 4.6 mph - N/A   Clear
9:58 PM 79.3 °F - 74.1 °F 84% 29.90 in 10.0 mi Calm Calm - N/A   Clear
10:11 PM 78.8 °F - 73.4 °F 83% 29.91 in 10.0 mi Calm Calm - N/A   Light Drizzle
10:17 PM 78.8 °F - 73.4 °F 83% 29.91 in 10.0 mi Calm Calm - N/A   Clear
10:58 PM 79.2 °F - 73.6 °F 83% 29.90 in 10.0 mi SSW 3.5 mph - 0.00 in   Clear
11:58 PM 77.2 °F - 73.6 °F 89% 29.90 in 10.0 mi SSW 4.6 mph - N/A   Clear